Hourly Data Report for October 06, 2017

All times are specified in Local Standard Time (LST). Add 1 hour to adjust for Daylight Saving Time where and when it is observed.

KUGLUKTUK A
NUNAVUT

67°49'00.000" N
115°08'38.000" W
22.60 m
2300903
71938
YCO

Download Data

Hourly Data (October 2017)
Hourly Data Report for October 6, 2017
Temp Definition
°C
Dew Point Temp Definition
°C
Rel Hum Definition
%
Wind Dir Definition
10's deg

Wind Spd Definition
km/h
Visibility Definition
km
Stn Press Definition
kPa
Hmdx Definition


Wind Chill Definition


Weather Definition


TIME
00:00 Legend Double Dagger -3.1 -4.7 89 12 21 24.1 99.87   -9 LegendNANA
01:00 Legend Double Dagger -3.8 -5.3 90 12 14 24.1 99.84   -9 LegendNANA
02:00 Legend Double Dagger -3.6 -5.0 91 13 8 24.1 99.78   -7 Cloudy
03:00 Legend Double Dagger -2.4 -3.8 90 10 11 24.1 99.74   -6 LegendNANA
04:00 Legend Double Dagger -2.5 -4.1 89 11 15 24.1 99.72   -7 LegendNANA
05:00 Legend Double Dagger -2.1 -3.5 90 8 13 24.1 99.71   -7 Snow
06:00 Legend Double Dagger -1.9 -3.7 88 6 21 24.1 99.68   -8 LegendNANA
07:00 Legend Double Dagger -2.4 -4.5 86 5 21 24.1 99.66   -8 LegendNANA
08:00 Legend Double Dagger -3.0 -4.6 88 13 10 24.1 99.63   -7 Cloudy
09:00 Legend Double Dagger -2.8 -4.5 88 10 8 24.1 99.62   -6 Snow Grains
10:00 Legend Double Dagger -3.0 -4.7 88 11 13 24.1 99.62   -8 Snow Grains
11:00 Legend Double Dagger -3.0 -4.8 88 11 11 24.1 99.60   -7 Snow Grains
12:00 Legend Double Dagger -3.0 -4.9 87 10 13 24.1 99.61   -8 LegendNANA
13:00 Legend Double Dagger -3.2 -5.3 85 9 17 24.1 99.62   -9 LegendNANA
14:00 Legend Double Dagger -3.6 -6.1 83 10 22 24.1 99.65   -10 Cloudy
15:00 Legend Double Dagger -3.8 -6.7 80 12 22 24.1 99.71   -10 LegendNANA
16:00 Legend Double Dagger -3.5 -6.8 78 11 15 24.1 99.75   -9 LegendNANA
17:00 Legend Double Dagger -3.3 -7.3 74 11 15 24.1 99.79   -8 Cloudy
18:00 Legend Double Dagger -3.0 -6.9 74 9 19 24.1 99.83   -9 LegendNANA
19:00 Legend Double Dagger -3.3 -7.1 75 12 21 24.1 99.87   -10 LegendNANA
20:00 Legend Double Dagger -3.6 -7.4 75 13 13 24.1 99.92   -8 Cloudy
21:00 Legend Double Dagger -3.4 -7.0 77 13 7 24.1 99.95   -6 LegendNANA
22:00 Legend Double Dagger -4.0 -7.4 77 10 23 24.1 100.00   -11 LegendNANA
23:00 Legend Double Dagger -3.9 -7.1 79 11 16 24.1 100.07   -9 Mostly Cloudy

Notes on Data Quality.

Legend

  • E = Estimated
  • M = Missing
  • NA = Not Available
  • ‡ = Partner data that is not subject to review by the National Climate Archives
Date modified: